Alliance, NE

3:46 AM MST on February 27, 2017 (GMT -0700)
Alliance Municipal

Weather History for KAIA - April, 2013

Change the Weather History Date:

Saturday, April 20, 2013

  Actual Average Record
Temperature  
Mean Temperature 45 °F 46 °F  
Max Temperature 57 °F 61 °F 86 °F (1910)
Min Temperature 33 °F 31 °F -4 °F (1966)
Degree Days  
Heating Degree Days 20 19  
Month to date heating degree days 592 429  
Since 1 July heating degree days 6624 6715  
Cooling Degree Days 0 0  
Month to date cooling degree days 0 0  
Year to date cooling degree days 0 0  
Moisture  
Dew Point 34 °F    
Average Humidity 72    
Maximum Humidity 100    
Minimum Humidity 43    
Precipitation  
Precipitation 0.00 in 0.06 in 1.00 in (1933)
Month to date precipitation 0.12 0.94  
Year to date precipitation 0.69 2.35  
Sea Level Pressure  
Sea Level Pressure 29.92 in    
Wind  
Wind Speed 11 mph (South)    
Max Wind Speed 21 mph    
Max Gust Speed 28 mph    
Visibility 10 miles    
Events      
T = Trace of Precipitation, MM = Missing Value Source: NWS Daily Summary

Daily Weather History Graph

Daily Weather History Graph

Search for Another Location

Airport or City:

Trip Planner

Search our weather history database for the weather conditions in past years. The results will help you decide how hot, cold, wet, or windy it might be!

Date:

Astronomy

Apr. 20, 2013 Rise Set
Actual Time 6:02 AM MDT 7:38 PM MDT
Civil Twilight 5:33 AM MDT 8:07 PM MDT
Nautical Twilight 4:57 AM MDT 8:43 PM MDT
Astronomical Twilight 4:19 AM MDT 9:21 PM MDT
Moon 2:19 PM MDT (4/20) 2:58 AM MDT (4/20)
Length of Visible Light 14h 34m
Length of Day
13h 35m
Waxing Gibbous, 71% of the Moon is Illuminated
Apr 20
Waxing Gibbous
Apr 25
Full
May 2
Last Quarter
May 9
New
May 17
First Quarter

Hourly Weather History & Observations

Time (MDT) Temp. Windchill Dew Point Humidity Pressure Visibility Wind Dir Wind Speed Gust Speed Precip Events Conditions
12:53 AM 35.1 °F 25.2 °F 30.0 °F 82% 29.97 in 10.0 mi SSE 16.1 mph - N/A   Overcast
1:53 AM 35.1 °F 25.5 °F 30.0 °F 82% 29.94 in 10.0 mi SSE 15.0 mph - N/A   Overcast
2:53 AM 34.0 °F 23.4 °F 28.9 °F 82% 29.93 in 10.0 mi SSE 17.3 mph - N/A   Mostly Cloudy
3:53 AM 34.0 °F 24.2 °F 30.0 °F 85% 29.92 in 10.0 mi South 15.0 mph - N/A   Mostly Cloudy
4:53 AM 34.0 °F 23.4 °F 30.0 °F 85% 29.90 in 10.0 mi South 17.3 mph - N/A   Overcast
5:53 AM 34.0 °F 25.0 °F 30.0 °F 85% 29.91 in 10.0 mi SSE 12.7 mph - N/A   Overcast
6:53 AM 35.1 °F 27.4 °F 30.0 °F 82% 29.93 in 10.0 mi SSE 10.4 mph - N/A   Overcast
7:53 AM 37.0 °F 27.7 °F 30.9 °F 79% 29.94 in 10.0 mi SSE 16.1 mph - N/A   Mostly Cloudy
8:53 AM 37.9 °F 28.5 °F 30.9 °F 76% 29.96 in 10.0 mi SSE 17.3 mph - N/A   Overcast
9:53 AM 43.0 °F 35.4 °F 32.0 °F 65% 29.94 in 10.0 mi SSE 16.1 mph - N/A   Overcast
10:53 AM 45.0 °F 38.5 °F 33.1 °F 63% 29.94 in 10.0 mi South 13.8 mph - N/A   Overcast
11:53 AM 51.1 °F - 33.1 °F 50% 29.91 in 10.0 mi SW 8.1 mph - N/A   Overcast
12:53 PM 55.0 °F - 35.1 °F 47% 29.90 in 10.0 mi WSW 6.9 mph - N/A   Partly Cloudy
1:53 PM 54.0 °F - 33.1 °F 45% 29.88 in 10.0 mi Variable 3.5 mph - N/A   Mostly Cloudy
2:53 PM 55.0 °F - 33.1 °F 43% 29.88 in 10.0 mi Calm Calm - N/A   Mostly Cloudy
3:53 PM 55.0 °F - 35.1 °F 47% 29.87 in 10.0 mi SW 10.4 mph - N/A   Mostly Cloudy
4:53 PM 55.0 °F - 36.0 °F 49% 29.87 in 10.0 mi SSW 6.9 mph - N/A   Mostly Cloudy
5:53 PM 55.9 °F - 36.0 °F 47% 29.87 in 10.0 mi ESE 9.2 mph - N/A   Scattered Clouds
6:53 PM 52.0 °F - 37.9 °F 59% 29.89 in 10.0 mi SSE 6.9 mph - N/A   Clear
7:53 PM 43.0 °F 38.2 °F 36.0 °F 76% 29.93 in 10.0 mi SSE 8.1 mph - N/A   Scattered Clouds
8:53 PM 45.0 °F 39.7 °F 37.9 °F 76% 29.94 in 10.0 mi SSE 10.4 mph - N/A   Mostly Cloudy
9:53 PM 46.0 °F 39.9 °F 37.0 °F 71% 29.95 in 10.0 mi South 13.8 mph - N/A   Overcast
10:53 PM 43.0 °F 41.3 °F 41.0 °F 93% 29.96 in 6.0 mi South 3.5 mph - N/A   Overcast
11:53 PM 39.9 °F 33.9 °F 39.0 °F 97% 29.95 in 10.0 mi SSE 9.2 mph - N/A   Mostly Cloudy